sat.trackr.live / text

‹ back to catalog

ICEYE-X26

NORAD 56961 · 2023-084AF

PAYLOAD ACTIVE UNKNOWN

§ Identity

Operator
Country
US
Launch date
2023-06-12
Launch site
AFWTR
Launch vehicle
Mass (kg)
RCS (m²)

External: N2YO · Heavens-Above · Gunter

§ Orbital elements

Epoch: 2026-05-31T12:48:06.128064Z

Period
88.02 min
Inclination
97.5464°
Eccentricity
0.0014332
Mean motion
16.35905726 rev/d
Perigee alt
167.3 km
Apogee alt
186.1 km
Semi-major
6,554.9 km
B*
9.8774e-4
RAAN
315.9673°
Arg perigee
270.4834°
Mean anomaly
89.4821°
Rev number
16,662

§ Raw data

ICEYE-X261 56961U 23084AF  26151.53340426  .07996038  26164-5  98774-3 0  99902 56961  97.5464 315.9673 0014332 270.4834  89.4821 16.35905726166626

JSON: /api/v1/satellites/56961 · /tle

For live sub-satellite position, see the globe view (requires WebGL).

§ Visibility from observer

Set your observer location to see the next 7 days of passes ≥ 10°. The values pass through the URL so the page stays shareable.

No JS? Fill the form by hand. The geolocation button needs JavaScript.

§ Radio — SatNOGS DB

ModeDescriptionDownlinkUplink
BPSK S-band telemetry 2.270 GHz

1 transmitter · refreshed weekly from db.satnogs.org